Weather in Shelayevo

Russia / Belgorod Oblast     50°07′16″N   38°04′16″E
temp.,
°C
wind,
m/s
gust,
m/s
humid.,
%
clouds,
%
prec.,
mm/h
press.,
hPa
HPBL,
m
21 april, wed
wed2100:00+9s5129471 1.8 1001434
03:00+9ssw71189100 1.9 1002909
06:00+6w61191100 0.4 1006752
09:00+9w587995 0.4 1010618
12:00+10wsw5982100 0.3 1012748
15:00+13wsw7105389 0.6 10132067
18:00+12sw696197 0.2 1014883
21:00+8ssw33785 0.2 101745
22 april, thu
thu2200:00+7ssw228155 0.0 101725
03:00+7sw348477 0.1 101863
06:00+7sw238396 0.1 1019104
09:00+12sw34665 0.1 1021556
12:00+15wsw45475 0.0 10201810
15:00+17wsw353971 0.0 10202394
18:00+15s365694 0.0 1020204
21:00+11s346178 0.0 102151
23 april, fri
fri2300:00+10ssw336932 0.0 102131
03:00+10s2372100 0.0 102047
06:00+10s3579100 0.1 1021137
09:00+13ssw466897 0.1 1020535
12:00+16ssw675083 0.8 10192006
15:00+16s5750100 0.8 10171073
18:00+15s595676 0.0 1016559
21:00+11sse5126779 0.0 1015251
24 april, sat
sat2400:00+11s41173100 0.1 1014411
03:00+10s51278100 0.1 1012497
06:00+9sw6118197 0.0 10121084
09:00+5wnw6987100 1.3 1014866
12:00+8wsw796151 0.1 10141523
15:00+12wsw81136100 0.1 10132753
18:00+10wsw694894 0.1 10141585
21:00+6w497261 0.3 1015466
25 april, sun
sun2500:00+4sw49808 0.3 1016270
03:00+3wsw49927 0.3 1016278
06:00+3wsw488985 0.0 1017333
09:00+7wsw575967 0.4 10171219
12:00+10wsw7841100 0.3 10172597
15:00+11wsw6839100 0.3 10162697
18:00+9wsw685365 0.4 10161411
21:00+5wsw227713 0.8 101833